Regional Weather Roundup
Issued by NWS

Home | Current Version | Previous Version | Text Only | Print | Product List | Glossary Off
Versions: 1 2 3 4 5 6 7 8 9 10 11 12 13 14 15 16 17 18 19 20 21 22 23 24 25 26 27 28 29 30 31 32 33 34 35 36 37 38 39 40 41 42 43 44 45 46 47 48 49 50

000
ASUS43 KOAX 261410
RWRNE

WEATHER ROUNDUP FOR NEBRASKA
NATIONAL WEATHER SERVICE OMAHA NE
900 AM CDT MON JUN 26 2017

NOTES: SATELLITE DATA IS BEING USED TO AUGMENT CLOUD COVER ABOVE
       12000 FEET.
       "FAIR" INDICATES FEW OR NO CLOUDS BELOW 12,000 FEET WITH NO
       SIGNIFICANT WEATHER AND/OR OBSTRUCTIONS TO VISIBILITY.

  * THESE STATIONS DO NOT REPORT WEATHER SUCH AS RAIN...SNOW OR FOG.

NEZ001>004-019>022-054>056-261500-
NEBRASKA PANHANDLE

CITY           SKY/WX    TMP DP  RH WIND       PRES   REMARKS
SCOTTSBLUFF    SUNNY     62  43  49 N7        30.25S
ALLIANCE       SUNNY     58  49  72 NE6       30.25R
CHADRON        SUNNY     55  41  59 NW3       30.26F
GORDON         FAIR      60  42  50 E13       30.26S
KIMBALL        SUNNY     64  54  70 W7        30.27F
SIDNEY         SUNNY     62  55  77 N6        30.26S
$$

NEZ057>060-069>072-079>082-261500-
SOUTHWEST NEBRASKA

CITY           SKY/WX    TMP DP  RH WIND       PRES   REMARKS
NORTH PLATTE   TSTM      62  60  93 W8        30.22S FOG
IMPERIAL       CLOUDY    60  57  89 CALM      30.23F
LEXINGTON      CLOUDY    65  58  79 SW5       30.22S
MCCOOK         MOSUNNY   65  58  78 SW8       30.21F
OGALLALA       SUNNY     62  57  82 CALM      30.22F
$$

NEZ005>010-023>029-035>040-094-261500-
NORTH CENTRAL NEBRASKA

CITY           SKY/WX    TMP DP  RH WIND       PRES   REMARKS
VALENTINE      SUNNY     61  43  51 E12       30.25R
AINSWORTH      SUNNY     60  49  68 NE10      30.24S
BROKEN BOW     PTSUNNY   63  58  83 W9        30.20F
O`NEILL        MOSUNNY   61  51  68 N7        30.22R
ORD            MOSUNNY   64  55  72 VRB3      30.19S
THEDFORD       MOSUNNY   63  51  65 NE8       30.23S
$$

NEZ041-046>049-061>064-073>077-083>087-261500-
SOUTH CENTRAL NEBRASKA

CITY           SKY/WX    TMP DP  RH WIND       PRES   REMARKS
GRAND ISLAND   PTSUNNY   64  60  87 W12       30.21R
AURORA         CLOUDY    65  58  77 NW7       30.20S
HASTINGS       CLOUDY    65  56  72 W10       30.22F
HEBRON         CLOUDY    65  56  73 NW6       30.21S
HOLDREGE       CLOUDY    65  57  74 SW7       30.22F
KEARNEY *      CLOUDY    64  55  72 SW10G16   30.21S
YORK           CLOUDY    63  55  77 CALM      30.21F
$$

NEZ011>018-030>034-042>045-261500-
NORTHEAST NEBRASKA

CITY           SKY/WX    TMP DP  RH WIND       PRES   REMARKS
NORFOLK        SUNNY     65  53  65 NE5       30.18S
ALBION         MOSUNNY   66  55  67 SW8       30.19S
BLAIR          CLOUDY    59  56  89 S9        30.20R
FREMONT        PTSUNNY   62  57  85 S6        30.20R
TEKAMAH        SUNNY     62  53  72 SE10      30.19S
WAYNE          SUNNY     61  54  75 NE5       30.20S
$$

NEZ050>053-065>068-078-088>093-261500-
SOUTHEAST NEBRASKA

CITY           SKY/WX    TMP DP  RH WIND       PRES   REMARKS
LINCOLN        TSTM      60  57  89 SE6       30.22S
OMAHA EPPLEY   CLOUDY    59  54  83 SE10      30.20S
BEATRICE       CLOUDY    62  57  82 E5        30.22S
FALLS CITY     LGT RAIN  59  56  89 E6        30.22F
NEBRASKA CITY  TSTM      58  58 100 E7        30.24F
PLATTSMOUTH    CLOUDY    57  54  91 SE9       30.21F
$$

NEZ044-045-051>053-067-261500-
OMAHA AREA

CITY           SKY/WX    TMP DP  RH WIND       PRES   REMARKS
OMAHA EPPLEY   CLOUDY    59  54  83 SE10      30.20S
BLAIR          CLOUDY    59  56  89 S9        30.20R
FREMONT        PTSUNNY   62  57  85 S6        30.20R
MILLARD        CLOUDY    61  57  88 SE6       30.20F
OFFUTT AFB     MOSUNNY   58  55  89 SE9       30.20F
PLATTSMOUTH    CLOUDY    57  54  91 SE9       30.21F
WAHOO          CLOUDY    63  52  67 S12       30.19F
$$




USA.gov is the U.S. government's official web portal to all federal, state and local government web resources and services.